Regional Weather Roundup
Issued by NWS

Home | Current Version | Previous Version | Text Only | Print | Product List | Glossary Off
Versions: 1 2 3 4 5 6 7 8 9 10 11 12 13 14 15 16 17 18 19 20 21 22 23 24 25 26 27 28 29 30 31 32 33 34 35 36 37 38 39 40 41 42 43 44 45 46 47 48 49 50

000
ASUS43 KOAX 200202
RWRNE

WEATHER ROUNDUP FOR NEBRASKA
NATIONAL WEATHER SERVICE OMAHA NE
800 PM CST THU JAN 19 2017

NOTES: SATELLITE DATA IS BEING USED TO AUGMENT CLOUD COVER ABOVE
       12000 FEET.
       "FAIR" INDICATES FEW OR NO CLOUDS BELOW 12,000 FEET WITH NO
       SIGNIFICANT WEATHER AND/OR OBSTRUCTIONS TO VISIBILITY.

  * THESE STATIONS DO NOT REPORT WEATHER SUCH AS RAIN...SNOW OR FOG.

NEZ001>004-019>022-054>056-200300-
NEBRASKA PANHANDLE

CITY           SKY/WX    TMP DP  RH WIND       PRES   REMARKS
SCOTTSBLUFF    CLEAR     35  24  64 W6        29.51S WCI  30
ALLIANCE       CLOUDY    29  23  78 N3        29.50R
CHADRON        CLOUDY    33  25  72 W5        29.50R WCI  29
KIMBALL        CLEAR     37  28  72 NW10      29.53S WCI  29
SIDNEY         CLEAR     32  25  75 W9        29.52S WCI  24
$$

NEZ057>060-069>072-079>082-200300-
SOUTHWEST NEBRASKA

CITY           SKY/WX    TMP DP  RH WIND       PRES   REMARKS
NORTH PLATTE   CLOUDY    38  36  92 SW6       29.55S WCI  33
IMPERIAL       FOG       35  34  96 S12       29.55R VSB 1/4 WCI  27
LEXINGTON      FOG       38  37  95 S3        29.56S VSB 1/4
MCCOOK         FOG       33  33 100 CALM      29.56R VSB 1/4
OGALLALA       FOG       33  33  96 S3        29.54R VSB 1/4
$$

NEZ005>010-023>029-035>040-094-200300-
NORTH CENTRAL NEBRASKA

CITY           SKY/WX    TMP DP  RH WIND       PRES   REMARKS
VALENTINE      CLEAR     36  31  82 SW12      29.47F WCI  28
AINSWORTH      CLOUDY    37  37 100 S10       29.50S WCI  29
BROKEN BOW     CLOUDY    40  38  93 S9        29.54F WCI  34
O`NEILL        CLOUDY    41  40  97 S12       29.54F
ORD            CLOUDY    40  37  89 S7        29.55F
THEDFORD       CLOUDY    36  35  96 S12G20    29.52F FOG     WCI  28
$$

NEZ041-046>049-061>064-073>077-083>087-200300-
SOUTH CENTRAL NEBRASKA

CITY           SKY/WX    TMP DP  RH WIND       PRES   REMARKS
GRAND ISLAND   CLOUDY    39  39 100 SE6       29.60S FOG     WCI  35
AURORA         FOG       38  38 100 SE6       29.60F VSB 1/4 WCI  34
HASTINGS       FOG       40  39  97 SE9       29.60F VSB 1/2 WCI  34
HEBRON         FOG       40  39  99 CALM      29.63F VSB 1/4
HOLDREGE       CLOUDY    39  38  97 SE6       29.56F WCI  34
KEARNEY *      CLOUDY    39  36  87 S6        29.58S WCI  35
YORK           FOG       37  37 100 CALM      29.62F VSB 1/4
$$

NEZ011>018-030>034-042>045-200300-
NORTHEAST NEBRASKA

CITY           SKY/WX    TMP DP  RH WIND       PRES   REMARKS
NORFOLK        CLOUDY    39  37  92 S10       29.60F WCI  32
ALBION         CLOUDY   N/A N/A N/A SE6       29.59F HAZE
BLAIR          LGT RAIN  40  39  98 CALM      29.66S VSB 1/4
FREMONT        FOG       38  38 100 CALM      29.67S VSB 1/4
TEKAMAH        FOG       37  36  96 E7        29.67S VSB 1/4 WCI  32
WAYNE          CLOUDY    38  38  99 SE7       29.62F FOG     WCI  33
$$

NEZ050>053-065>068-078-088>093-200300-
SOUTHEAST NEBRASKA

CITY           SKY/WX    TMP DP  RH WIND       PRES   REMARKS
LINCOLN        FOG       39  39 100 NE3       29.67R VSB 3/4
OMAHA EPPLEY   FOG       39  35  86 NW3       29.67R VSB 1/4
BEATRICE       FOG       40  40 100 CALM      29.65R VSB 1/2
FALLS CITY     FOG       42  42 100 E3        29.64F VSB 1/4
NEBRASKA CITY  FOG       40  40 100 CALM      29.66S VSB 1/4
PLATTSMOUTH    FOG       41  39  93 CALM      29.66R VSB 1/4
$$

NEZ044-045-051>053-067-200300-
OMAHA AREA

CITY           SKY/WX    TMP DP  RH WIND       PRES   REMARKS
OMAHA EPPLEY   FOG       39  35  86 NW3       29.67R VSB 1/4
BLAIR          LGT RAIN  40  39  98 CALM      29.66S VSB 1/4
FREMONT        FOG       38  38 100 CALM      29.67S VSB 1/4
MILLARD        FOG       42  41  97 CALM      29.67R VSB 1/2
OFFUTT AFB     DRZL/FOG  40  40 100 CALM      29.66S VSB 1/2
PLATTSMOUTH    FOG       41  39  93 CALM      29.66R VSB 1/4
WAHOO          FOG       37  36  96 CALM      29.66S VSB 1/4
$$




USA.gov is the U.S. government's official web portal to all federal, state and local government web resources and services.